Site menu:

About:

weather.olc.net provides weather information from NOAA, the National Weather Service, Weather Underground, and current weather data collected outside of Orangeburg, SC near Great Branch.


Today's Forecast

Tonight

Tonight: Mostly clear, with a low around 50. Light north wind.
Mostly Clear

Low: 50 °F

Wednesday

Wednesday: Sunny, with a high near 72. Northeast wind 6 to 11 mph.
Sunny

High: 72 °F

Weather Almanac

Historical Data
High Temp
Normal: 75°F
Record: 90°F (2007)
Low Temp
Normal: 51°F
Record: 31°F (1974)
Historical data from Orangeburg Airport provided by Weather UnderGround
Astronomical Info

Sunrise:
07:35 am

Sunset:
06:40 pm
Civil Twilight    
Dawn:
07:10 am
Dusk:
07:05 pm
Moonset: 05:21 am
Moonrise: 05:31 pm
Full MoonOct 24
Last Qtr.Oct 31
New MoonNov 07
First Qtr.Nov 15
Current PhaseFull Moon 100%

Regional Weather Roundup
Issued by NWS Columbia, SC


000
ASUS42 KCAE 240210
RWRCAE
REGIONAL WEATHER ROUNDUP
NATIONAL WEATHER SERVICE COLUMBIA SC
1000 PM EDT TUE OCT 23 2018

NOTE: "FAIR" INDICATES FEW OR NO CLOUDS BELOW 12,000 FEET WITH NO
SIGNIFICANT WEATHER AND/OR OBSTRUCTIONS TO VISIBILITY.

NOT ALL STATIONS ARE QUALITY CONTROLLED BY THE NATIONAL
WEATHER SERVICE. USE DATA WITH CAUTION...ESPECIALLY
DEWPOINT OBSERVATIONS.

SCZ001>056-GAZ040-063>065-077-240300-
...UPSTATE SOUTH CAROLINA...

CITY           SKY/WX    TMP DP  RH WIND       PRES   REMARKS
ANDERSON       FAIR      51  48  89 CALM      30.14F
LIBERTY        FAIR      46  46 100 CALM      30.14S
SPARTANBURG      N/A    N/A N/A N/A MISG        N/A
CLEMSON        FAIR      53  48  83 CALM      30.15S
GREENVILLE       N/A    N/A N/A N/A MISG      30.15S
GREENWOOD      FAIR      51  50  96 CALM      30.16S
GREER          FAIR      53  46  77 NW6       30.16R
ROCK HILL      FAIR      48  47  96 CALM      30.14R
CHESTER        FAIR      50  50 100 CALM      30.14S
LAURENS        FAIR      52  48  87 W5        30.15R


...CENTRAL SOUTH CAROLINA...

CITY           SKY/WX    TMP DP  RH WIND       PRES   REMARKS
COLUMBIA APT   MOCLDY    58  57  97 CALM      30.14R
COLUMBIA OWENS FAIR      58  54  86 CALM      30.15R
MCENTIRE ANGB  FAIR      55  54  98 CALM      30.14R
ORANGEBURG     FAIR      60  57  89 CALM      30.14R
SUMTER SHAW    FAIR      58  53  84 CALM      30.13R
AIKEN          FAIR      55  54  94 CALM      30.18R
BARNWELL       CLOUDY    61  59  94 CALM      30.15R
MANNING        FAIR      54  54 100 CALM      30.14R
CAMDEN         FAIR      55  52  88 CALM      30.14R
LANCASTER        N/A     50  50 100 CALM      30.14R
WINNSBORO      FAIR      54  54 100 W3        30.14S


...EASTERN AND COASTAL SOUTH CAROLINA...

CITY           SKY/WX    TMP DP  RH WIND       PRES   REMARKS
MYRTLE BEACH   FAIR      62  59  90 CALM      30.14R
N MYRTLE BCH   FAIR      61  57  87 CALM      30.11R
CONWAY         FAIR      55  55 100 CALM      30.13R
MARION         FAIR      55  54  94 CALM      30.13R
HARTSVILLE     FAIR      50  50 100 CALM      30.13R
FLORENCE       FAIR      60  55  83 NW3       30.13R
DARLINGTON     FAIR      52  51  97 W3        30.14R
CHARLESTON APT MOCLDY    63  60  90 NW3       30.12S
WALTERBORO     FAIR      59  57  94 CALM      30.14S
BEAUFORT       FAIR      67  64  90 NW3       30.13
HILTON HEAD    FAIR      64  63  94 CALM      30.13R


...EASTERN GEORGIA...

CITY           SKY/WX    TMP DP  RH WIND       PRES   REMARKS
AUGUSTA BUSH F FAIR      59  58  96 CALM      30.14R
AUGUSTA DANIEL FAIR      64  55  72 N3        30.15S
THOMSON        FAIR      56  55  96 MISG      30.21R
CLAXTON        FAIR      64  64  97 CALM      30.13S FOG
SYLVANIA       FAIR      62  61  97 CALM      30.15R
STATESBORO     FAIR      61  60  96 CALM      30.14R
SAVANNAH       CLOUDY    64  63  96 N3        30.13R


...SOUTHERN NORTH CAROLINA...

CITY           SKY/WX    TMP DP  RH WIND       PRES   REMARKS
CHARLOTTE      FAIR      54  47  77 CALM      30.14R
MONROE         FAIR      49  44  83 SW5       30.12S
WADESBORO      FAIR      49  47  94 CALM      30.13R
ROCKINGHAM     FAIR      53  53 100 W3        30.13R
ASHEVILLE      FAIR      52  39  61 N9        30.19S

$$